Starlink 32678

operational
NORAD ID: 62309 Int'l Des: 2024-239 Owner: SPXS Country: US Constellation: starlink
LEOCIRCULAR

Über Starlink 32678

Beschreibung wird geladen...

Live-Position

3D-Globus wird geladen...

Nächste Überflüge

Höhenverlauf

Altitude vs Time

uPlot chart will show altitude changes over time

Zweizeiliger Elementsatz

1 62309U 24239J 25308.68864778 .00016878 00000-0 58098-3 0 9995
2 62309 53.1595 41.9018 0000775 109.2955 250.8129 15.30183140 50427
Epoch: 4. Nov. 2025 • Age: 15 hours

Aktueller Status

Höhe 493.2 km
Geschwindigkeit 7.62 km/s
Subsatellitenpunkt -50.45°S, 171.45°E
Startdatum 13. Dez. 2024
Alter 0.8 years
Typ internet

Technische Details

Klassifizierung Payload
Masse 730.00 kg
Trockenmasse 700.00 kg
Gesamtmasse 730.00 kg
Länge 0.30 m
Durchmesser 4.10 m
Spannweite 29.00 m
Form Box + pan
Hersteller SPXS
Bus-Typ Starlink V2M
Phasenstatus In Orbit
Besitzer/Staat SPXS/US

Große Konstellationen

Loading constellations...